Погода в Тырке

Погода в Тырке : погода сейчас, прогноз погоды и архив. Всё, что Вы хотите узнать о погоде в Тырке!

Хотите узнать прогноз погоды в Тырке? Тогда Вам сюда: Погода в Тырке

Поиск расширенной информации на нашем сайте:

Другие новости

Новости СМИ2

Главная страница сайта

Новости сайта

03.07.2017

Напоминаем, что на нашем специализированном сайте Метеоцентр.Азия вы можете получить высокодетализированные автоматические прогнозы погоды по пунктам России, СНГ и мира в авиационном формате (включающие направление и скорость ветра, видимость, явления погоды, количество и форму облачности, нижнюю и верхнюю границу облачности).


Погода в Тырке - сегодня

Время (UTC), дата Ветер
(°,м/с) 
Видим.   Явления Облачность Т
(°С)
Тd
(°С)
f(%) Тe
(°С)
Pmin
(гПа)
dP
(гПа)
Po
(мм)
O2
(г/м3)
Тmin Tmax R s Состояние
почвы
03 15.04.18 280 (З) 20000 м    8/0 верхняя 
[Ci fib]
+9.3 -6.4 32 +10  1000.7  -1.8  694  271           
09 15.04.18 290 (З) 5{13}  20000 м    9/6 600 м кучево-дожд., средняя, верхняя 
[Cb cap|Ac lent|Ci fib]
+5 -2.2 60 +3  1006.1  697  276           
15 15.04.18 300 (СЗ) н/о    3/0 средняя, верхняя 
[Ac trans|Ci fib]
+0.8 -3.4 73 1010.6  1.8  699  281           
18 15.04.18 тихо ()   н/о    3/0 средняя, верхняя 
[Ac trans|Ci fib]
-3.2 -5.6 83 -3  1013.1  1.2  700  286           
21 15.04.18 тихо ()   н/о    1/0 верхняя 
[Ci fib]
-7 -7.9 93 -7  1014.5  0.1  700  290           
03 16.04.18 260 (З) 20000 м    3/1 600 м верхняя 
[Cu hum|Ci fib]
+2.9 -11.8 33 +2  1013.9  0.4  702  281           
06 16.04.18 290 (З) 20000 м    3/3 600 м 
[Cu hum]
+4.9 -10.6 32 +3  1012  -1.2  701  278           
09 16.04.18 230 (ЮЗ) 20000 м    1/1 600 м 
[Cu hum]
+6.1 -11 28 +6  1010.7  -0.9  701  277           
15 16.04.18 тихо ()   н/о    1/0 верхняя 
[Ci fib]
-3.2 -8.3 68 -3  1013.1  700  286           
18 16.04.18 тихо ()   н/о    ясно 
-6.6 -8.6 86 -7  1009.7  -0.6  700  290           
03 17.04.18 310 (СЗ) 20000 м    4/0 средняя, верхняя 
[Ac trans|Ci fib]
+6 -8.4 35 +7  1007.3  -1.4  698  276           
06 17.04.18 170 (Ю) 20000 м    9/0 средняя, верхняя 
[Ac lent|Cc]
+10.4 -7.6 27 +11  1004.1  -1.8  697  271           
09 17.04.18 180 (Ю) 20000 м    8/0 средняя, верхняя 
[Ac lent|Ci fib]
+12 -10 20 +12  1003.2  -0.5  696  270           
15 17.04.18 100 (В) н/о    3/3 600 м 
[Sc diur, vesp]
+1 -5 64 1007.8  1.5  698  280           
18 17.04.18 тихо ()   н/о    4/0 верхняя 
[Ci fib]
-2 -6.2 73 -2  1008.3  -0.4  697  284           
21 17.04.18 тихо ()   н/о    9/3 600 м верхняя 
[Sc|Ci sp]
-3.7 -4.5 94 -4  1008.7  -0.1  697  285           
00 18.04.18 тихо ()   20000 м    9/3 600 м верхняя 
[Sc|Ci fib]
-1.3 -2.7 90 -1  1008.2  0.2  697  282  -4.7      мокрый или
старый снег
50-90% 
03 18.04.18 330 (СЗ) 20000 м  осадки на расстоянии{ливн. осадки}  10/10 600 м кучево-дожд. 
[Cb cap]
+3.1 +1.3 88 +4  1008.5  1.6  698  278           
09 18.04.18 290 (З) 20000 м  {ливн. осадки}  8/5 600 м кучево-дожд. 
[Cb cap]
+3.1 -5.6 53 +2  1011.8  701  280           
15 18.04.18 тихо ()   н/о    ясно 
-2.9 -10 58 -3  1017  2.2  703  287           
18 18.04.18 330 (СЗ) н/о    3/0 верхняя 
[Ci fib]
-8.5 -10.4 86 -8  1020.7  1.7  704  294           
21 18.04.18 300 (СЗ) н/о    8/8 600 м кучево-дожд. 
[Cb cap]
-8.3 -10.6 83 -8  1019.5  -1  704  293           
03 19.04.18 170 (Ю) 20000 м    10/0 средняя 
[As trans]
-0.5 -13.6 36 1019  -0.1  705  286           
06 19.04.18 300 (СЗ) 20000 м    8/8 600 м кучево-дожд., средняя 
[Cb cap|Ac trans]
+2.5 -14 28 1016.8  -1.2  704  282           
09 19.04.18 250 (З) 20000 м  осадки на расстоянии  8/8 600 м кучево-дожд., средняя 
[Cb cap|Ac trans]
+2.9 -10.1 38 +2  1016.8  0.1  704  282           
Время (UTC), дата Ветер
(°,м/с) 
Видим.   Явления Облачность Т
(°С)
Тd
(°С)
f(%) Тe
(°С)
Pmin
(гПа)
dP
(гПа)
Po
(мм)
O2
(г/м3)
Тmin Tmax R s Состояние
почвы

Для получения пояснительной информации подведите курсор к названию столбца.

ПОГОДА в Тырке - архив

Всё, что Вы хотите узнать о погоде в Тырке - удобно и подробно!

Выберите нужную дату (начиная с 1 января 2015* года) и нажмите кнопку "Найти".
Будут отображены архивные сводки погоды по пункту Тырка, начиная с указанной даты.


Отображать данные в формате CSV (для использования в таблицах Excel)


Внимание! Наш архив погоды предназначен исключительно для личного некоммерческого использования в познавательных целях. Если Вам необходимы официальные справки о состоянии погоды (для производственных, юридических, коммерческих и т.п. целей), обращайтесь в органы Росгидромета.

*Примечание: данная дата относится к архиву по метеостанциям СССР (Россия, СНГ, Балтия).
Архив по метеостанциям Зарубежной Европы и Азии (кроме Китая) хранится 10 дней, по другим регионам земного шара (Китай, Африка, Америка, Австралия, Океания) - 1 день.

Тырка - район местоположения метеостанции


Название, широта, долгота, высота метеостанции:
Тырка 54.5°ш. 107.1°д. 650 м над ур. моря [Российская Федерация]

Дополнительная информация

В oтличие oт бoльшинства пoгoдных сайтoв мы публикуем пoдрoбную метеoинфoрмацию в детальнoм прoфессиoнальнoм фoрмате.

Характеристики температуры и влажнoсти вoздуха измеряются на высoте 2 м в тени вдали oт зданий и деревьев.
Скoрoсть ветра измеряется на высoте 10 м (на урoвне рoста челoвека скoрoсть ветра ниже в 1.5-2 раза). Если метеoстанция нахoдится в гoрoде или в лесу, тo скoрoсть ветра занижена на 2-4 м/с пo сравнению с oткрытым местoм. Скoрoсть ветра над акватoриями крупных рек и oзёр, а также на вершинах хoлмoв на 2-5 м/с выше, чем в oбычных услoвиях.
Атмoсфернoе давление в разных тoчках местнoсти мoжет значительнo oтличаться oт давления на метеoстанции, в зависимoсти oт услoвий рельефа (при пoдъёме на 10 м давление пoнижается примернo на 1 мм рт.ст.).